{"data":{"norad_id":64387,"intl_designator":"2025-127T","name":"STARLINK-34351","alt_names":[],"object_type":"PAYLOAD","status":"ACTIVE","operator":null,"country":"US","launch_date":"2025-06-13","launch_site_code":"AFETR","launch_vehicle":null,"mission":null,"orbit_class":"UNKNOWN","rcs_meters":null,"size_class":null,"mass_kg":null,"dimensions":null,"purposes":["comms"],"wikipedia_slug":null,"has_3d_model":false,"image_url":null,"decayed_at":null,"tle_current":{"epoch":"2026-05-24T08:36:10.840320Z","epoch_age_seconds":130388,"freshness":"FRESH","line1":"1 64387U 25127T   26144.35845880  .00006364  00000+0  24059-3 0  9994","line2":"2 64387  43.0028 112.0947 0001133 283.8149  76.2576 15.27581289 54048","mean_motion":15.27581289,"eccentricity":0.0001133,"inclination_deg":43.0028,"raan_deg":112.0947,"arg_perigee_deg":283.8149,"mean_anomaly_deg":76.2576,"bstar":0.00024059,"rev_number":5404,"period_min":94.266669169709,"perigee_km":482.26786436528,"apogee_km":483.82260826003,"semimajor_km":6861.1822363127,"source":"CELESTRAK","updated_at":"2026-05-25T13:38:20.414432Z"}}}